contact:dominique.lefevre@mio.osupytheas.fr, maurice.libes@osupytheas.fr, didier.mallarino@osupytheas.fr
Project:EMSO http://www.emso-fr.org/EMSO-France
Depth: 2436.0 m
Title:EMSO Ligure Ouest : Data MII capteur MICROCAT
DateTime_Computer,Latitude,Longitude,Temperature,Conductivity,Pressure,DateTime_Instrument
DateTime_Computer,Latitude,Longitude,degC,S m-1,dbar,DateTime_Instrument
2021-01-22T00:03:02Z,42.805,6.029,13.2993,4.60007,2470.203,2021-1-22T02:04:04Z
2021-01-22T00:06:05Z,42.805,6.029,13.2994,4.60009,2470.18,2021-1-22T02:07:07Z
2021-01-22T00:09:08Z,42.805,6.029,13.2994,4.60005,2470.156,2021-1-22T02:10:10Z
2021-01-22T00:12:11Z,42.805,6.029,13.2993,4.60004,2470.133,2021-1-22T02:13:13Z
2021-01-22T00:15:14Z,42.805,6.029,13.2994,4.60008,2470.18,2021-1-22T02:16:16Z
2021-01-22T00:18:17Z,42.805,6.029,13.2991,4.60009,2470.156,2021-1-22T02:19:19Z
2021-01-22T00:21:21Z,42.805,6.029,13.2996,4.60005,2470.227,2021-1-22T02:22:22Z
2021-01-22T00:24:24Z,42.805,6.029,13.2996,4.60005,2470.171,2021-1-22T02:25:26Z
2021-01-22T00:27:27Z,42.805,6.029,13.2996,4.60011,2470.18,2021-1-22T02:28:29Z
2021-01-22T00:30:30Z,42.805,6.029,13.3000,4.60009,2470.203,2021-1-22T02:31:32Z
2021-01-22T00:33:33Z,42.805,6.029,13.2993,4.60004,2470.217,2021-1-22T02:34:35Z
2021-01-22T00:36:36Z,42.805,6.029,13.2995,4.60009,2470.156,2021-1-22T02:37:38Z
2021-01-22T00:39:39Z,42.805,6.029,13.2998,4.60011,2470.217,2021-1-22T02:40:41Z
2021-01-22T00:42:42Z,42.805,6.029,13.2996,4.60014,2470.203,2021-1-22T02:43:44Z
2021-01-22T00:45:46Z,42.805,6.029,13.2996,4.60014,2470.156,2021-1-22T02:46:47Z
2021-01-22T00:48:49Z,42.805,6.029,13.3001,4.60010,2470.203,2021-1-22T02:49:51Z
2021-01-22T00:51:52Z,42.805,6.029,13.2997,4.60014,2470.217,2021-1-22T02:52:54Z
2021-01-22T00:54:55Z,42.805,6.029,13.2995,4.60011,2470.18,2021-1-22T02:55:57Z
2021-01-22T00:57:58Z,42.805,6.029,13.2993,4.60008,2470.18,2021-1-22T02:59:00Z
2021-01-22T01:01:01Z,42.805,6.029,13.2998,4.60026,2470.18,2021-1-22T03:02:03Z
2021-01-22T01:04:04Z,42.805,6.029,13.2997,4.60010,2470.18,2021-1-22T03:05:06Z
2021-01-22T01:07:07Z,42.805,6.029,13.2998,4.60009,2470.18,2021-1-22T03:08:09Z
2021-01-22T01:10:10Z,42.805,6.029,13.3002,4.60016,2470.156,2021-1-22T03:11:12Z
2021-01-22T01:13:14Z,42.805,6.029,13.3005,4.60008,2470.18,2021-1-22T03:14:16Z
2021-01-22T01:16:17Z,42.805,6.029,13.2997,4.60009,2470.217,2021-1-22T03:17:19Z
2021-01-22T01:19:20Z,42.805,6.029,13.2993,4.60013,2470.18,2021-1-22T03:20:22Z
2021-01-22T01:22:23Z,42.805,6.029,13.2996,4.60014,2470.203,2021-1-22T03:23:25Z
2021-01-22T01:25:26Z,42.805,6.029,13.2996,4.60010,2470.18,2021-1-22T03:26:28Z
2021-01-22T01:28:29Z,42.805,6.029,13.3001,4.60021,2470.203,2021-1-22T03:29:31Z
2021-01-22T01:31:32Z,42.805,6.029,13.2998,4.60013,2470.18,2021-1-22T03:32:34Z
2021-01-22T01:34:35Z,42.805,6.029,13.3001,4.60015,2470.18,2021-1-22T03:35:37Z
2021-01-22T01:37:39Z,42.805,6.029,13.2993,4.60009,2470.203,2021-1-22T03:38:41Z
2021-01-22T01:40:42Z,42.805,6.029,13.2999,4.60006,2470.18,2021-1-22T03:41:44Z
2021-01-22T01:43:45Z,42.805,6.029,13.2999,4.60013,2470.194,2021-1-22T03:44:47Z
2021-01-22T01:46:48Z,42.805,6.029,13.2999,4.60006,2470.194,2021-1-22T03:47:50Z
2021-01-22T01:49:51Z,42.805,6.029,13.2995,4.60008,2470.217,2021-1-22T03:50:53Z
2021-01-22T01:52:54Z,42.805,6.029,13.2998,4.60009,2470.194,2021-1-22T03:53:56Z
2021-01-22T01:55:57Z,42.805,6.029,13.3002,4.60007,2470.194,2021-1-22T03:56:59Z
2021-01-22T01:59:00Z,42.805,6.029,13.2995,4.60021,2470.194,2021-1-22T04:00:02Z
2021-01-22T02:02:04Z,42.805,6.029,13.2998,4.60019,2470.18,2021-1-22T04:03:06Z
2021-01-22T02:05:07Z,42.805,6.029,13.2995,4.60018,2470.18,2021-1-22T04:06:09Z
2021-01-22T02:08:10Z,42.805,6.029,13.2997,4.60010,2470.194,2021-1-22T04:09:12Z
2021-01-22T02:11:13Z,42.805,6.029,13.2999,4.60012,2470.203,2021-1-22T04:12:15Z
2021-01-22T02:14:16Z,42.805,6.029,13.3000,4.60014,2470.18,2021-1-22T04:15:18Z
2021-01-22T02:17:19Z,42.805,6.029,13.2998,4.60021,2470.18,2021-1-22T04:18:21Z
2021-01-22T02:20:22Z,42.805,6.029,13.2998,4.60011,2470.18,2021-1-22T04:21:24Z
2021-01-22T02:23:25Z,42.805,6.029,13.2999,4.60011,2470.203,2021-1-22T04:24:27Z
2021-01-22T02:26:29Z,42.805,6.029,13.3001,4.60008,2470.203,2021-1-22T04:27:31Z
2021-01-22T02:29:32Z,42.805,6.029,13.2995,4.60009,2470.217,2021-1-22T04:30:34Z
2021-01-22T02:32:35Z,42.805,6.029,13.2998,4.60011,2470.156,2021-1-22T04:33:37Z
2021-01-22T02:35:38Z,42.805,6.029,13.2991,4.60006,2470.203,2021-1-22T04:36:40Z
2021-01-22T02:38:41Z,42.805,6.029,13.3004,4.60015,2470.24,2021-1-22T04:39:43Z
2021-01-22T02:41:44Z,42.805,6.029,13.2996,4.60009,2470.189,2021-1-22T04:42:46Z
2021-01-22T02:44:47Z,42.805,6.029,13.2993,4.60008,2470.203,2021-1-22T04:45:49Z
2021-01-22T02:47:50Z,42.805,6.029,13.2998,4.60009,2470.194,2021-1-22T04:48:52Z
2021-01-22T02:50:54Z,42.805,6.029,13.2998,4.60004,2470.171,2021-1-22T04:51:56Z
2021-01-22T02:53:57Z,42.805,6.029,13.2996,4.60007,2470.18,2021-1-22T04:54:59Z
2021-01-22T02:57:00Z,42.805,6.029,13.2998,4.60003,2470.18,2021-1-22T04:58:02Z
2021-01-22T03:00:03Z,42.805,6.029,13.2998,4.60011,2470.203,2021-1-22T05:01:05Z
2021-01-22T03:03:06Z,42.805,6.029,13.2993,4.60006,2470.18,2021-1-22T05:04:08Z
2021-01-22T03:06:09Z,42.805,6.029,13.2995,4.60003,2470.24,2021-1-22T05:07:11Z
2021-01-22T03:09:12Z,42.805,6.029,13.2996,4.60005,2470.189,2021-1-22T05:10:14Z
2021-01-22T03:12:15Z,42.805,6.029,13.3000,4.60006,2470.203,2021-1-22T05:13:17Z
2021-01-22T03:15:19Z,42.805,6.029,13.2999,4.60006,2470.227,2021-1-22T05:16:20Z
2021-01-22T03:18:22Z,42.805,6.029,13.2995,4.60007,2470.203,2021-1-22T05:19:24Z
2021-01-22T03:21:25Z,42.805,6.029,13.2994,4.60006,2470.203,2021-1-22T05:22:27Z
2021-01-22T03:24:28Z,42.805,6.029,13.2993,4.60002,2470.203,2021-1-22T05:25:30Z
2021-01-22T03:27:31Z,42.805,6.029,13.2995,4.60009,2470.194,2021-1-22T05:28:33Z
2021-01-22T03:30:34Z,42.805,6.029,13.2993,4.60006,2470.156,2021-1-22T05:31:36Z
2021-01-22T03:33:37Z,42.805,6.029,13.2998,4.60007,2470.217,2021-1-22T05:34:39Z
2021-01-22T03:36:40Z,42.805,6.029,13.2991,4.60006,2470.194,2021-1-22T05:37:42Z
2021-01-22T03:39:44Z,42.805,6.029,13.2994,4.60009,2470.18,2021-1-22T05:40:46Z
2021-01-22T03:42:47Z,42.805,6.029,13.2993,4.60006,2470.171,2021-1-22T05:43:49Z
2021-01-22T03:45:50Z,42.805,6.029,13.2996,4.60008,2470.203,2021-1-22T05:46:52Z
2021-01-22T03:48:53Z,42.805,6.029,13.2996,4.60003,2470.18,2021-1-22T05:49:55Z
2021-01-22T03:51:56Z,42.805,6.029,13.2993,4.60008,2470.171,2021-1-22T05:52:58Z
2021-01-22T03:54:59Z,42.805,6.029,13.2991,4.60005,2470.18,2021-1-22T05:56:01Z
2021-01-22T03:58:02Z,42.805,6.029,13.2995,4.60007,2470.156,2021-1-22T05:59:04Z
2021-01-22T04:01:05Z,42.805,6.029,13.2993,4.60006,2470.171,2021-1-22T06:02:07Z
2021-01-22T04:04:09Z,42.805,6.029,13.2995,4.60014,2470.217,2021-1-22T06:05:10Z
2021-01-22T04:07:12Z,42.805,6.029,13.2995,4.60010,2470.156,2021-1-22T06:08:14Z
2021-01-22T04:10:15Z,42.805,6.029,13.2998,4.60008,2470.18,2021-1-22T06:11:17Z
2021-01-22T04:13:18Z,42.805,6.029,13.2998,4.60006,2470.203,2021-1-22T06:14:20Z
2021-01-22T04:16:21Z,42.805,6.029,13.2998,4.60008,2470.156,2021-1-22T06:17:23Z
2021-01-22T04:19:24Z,42.805,6.029,13.2997,4.60007,2470.18,2021-1-22T06:20:26Z
2021-01-22T04:22:27Z,42.805,6.029,13.2991,4.60005,2470.194,2021-1-22T06:23:29Z
2021-01-22T04:25:30Z,42.805,6.029,13.2995,4.60007,2470.194,2021-1-22T06:26:32Z
2021-01-22T04:28:34Z,42.805,6.029,13.2997,4.60008,2470.18,2021-1-22T06:29:35Z
2021-01-22T04:31:37Z,42.805,6.029,13.3000,4.60008,2470.171,2021-1-22T06:32:39Z
2021-01-22T04:34:40Z,42.805,6.029,13.2998,4.60011,2470.217,2021-1-22T06:35:42Z
2021-01-22T04:37:43Z,42.805,6.029,13.2996,4.60011,2470.194,2021-1-22T06:38:45Z
2021-01-22T04:40:46Z,42.805,6.029,13.2994,4.60011,2470.203,2021-1-22T06:41:48Z
2021-01-22T04:43:49Z,42.805,6.029,13.2997,4.60011,2470.18,2021-1-22T06:44:51Z
2021-01-22T04:46:52Z,42.805,6.029,13.2996,4.60009,2470.194,2021-1-22T06:47:54Z
2021-01-22T04:49:55Z,42.805,6.029,13.3000,4.60009,2470.156,2021-1-22T06:50:57Z
2021-01-22T04:52:59Z,42.805,6.029,13.2993,4.60003,2470.194,2021-1-22T06:54:00Z
2021-01-22T04:56:02Z,42.805,6.029,13.2992,4.60006,2470.18,2021-1-22T06:57:04Z
2021-01-22T04:59:05Z,42.805,6.029,13.2994,4.60004,2470.18,2021-1-22T07:00:07Z
2021-01-22T05:02:08Z,42.805,6.029,13.2998,4.60003,2470.18,2021-1-22T07:03:10Z
2021-01-22T05:05:11Z,42.805,6.029,13.2997,4.60005,2470.18,2021-1-22T07:06:13Z
2021-01-22T05:08:14Z,42.805,6.029,13.2993,4.60006,2470.171,2021-1-22T07:09:16Z
2021-01-22T05:11:17Z,42.805,6.029,13.2993,4.60003,2470.171,2021-1-22T07:12:19Z
2021-01-22T05:14:20Z,42.805,6.029,13.2995,4.60009,2470.156,2021-1-22T07:15:22Z
2021-01-22T05:17:23Z,42.805,6.029,13.2997,4.60008,2470.18,2021-1-22T07:18:25Z
2021-01-22T05:20:27Z,42.805,6.029,13.3002,4.60011,2470.147,2021-1-22T07:21:29Z
2021-01-22T05:23:30Z,42.805,6.029,13.2996,4.60009,2470.18,2021-1-22T07:24:32Z
2021-01-22T05:26:33Z,42.805,6.029,13.2999,4.60008,2470.171,2021-1-22T07:27:35Z
2021-01-22T05:29:36Z,42.805,6.029,13.2993,4.60011,2470.171,2021-1-22T07:30:38Z
2021-01-22T05:32:39Z,42.805,6.029,13.2995,4.60010,2470.18,2021-1-22T07:33:41Z
2021-01-22T05:35:42Z,42.805,6.029,13.2997,4.60003,2470.203,2021-1-22T07:36:44Z
2021-01-22T05:38:45Z,42.805,6.029,13.2995,4.60014,2470.194,2021-1-22T07:39:47Z
2021-01-22T05:41:48Z,42.805,6.029,13.3005,4.60010,2470.156,2021-1-22T07:42:50Z
2021-01-22T05:44:52Z,42.805,6.029,13.2999,4.60010,2470.147,2021-1-22T07:45:53Z
2021-01-22T05:47:55Z,42.805,6.029,13.2999,4.60009,2470.18,2021-1-22T07:48:57Z
2021-01-22T05:50:58Z,42.805,6.029,13.2999,4.60015,2470.203,2021-1-22T07:52:00Z
2021-01-22T05:54:01Z,42.805,6.029,13.2994,4.60005,2470.133,2021-1-22T07:55:03Z
2021-01-22T05:57:04Z,42.805,6.029,13.2995,4.60001,2470.171,2021-1-22T07:58:06Z
2021-01-22T06:00:07Z,42.805,6.029,13.2996,4.60004,2470.171,2021-1-22T08:01:09Z
2021-01-22T06:03:10Z,42.805,6.029,13.2995,4.60003,2470.133,2021-1-22T08:04:12Z
2021-01-22T06:06:13Z,42.805,6.029,13.2995,4.60004,2470.194,2021-1-22T08:07:15Z
2021-01-22T06:09:17Z,42.805,6.029,13.2996,4.60009,2470.156,2021-1-22T08:10:18Z
2021-01-22T06:12:20Z,42.805,6.029,13.2997,4.60007,2470.194,2021-1-22T08:13:22Z
2021-01-22T06:15:23Z,42.805,6.029,13.2992,4.60007,2470.18,2021-1-22T08:16:25Z
2021-01-22T06:18:26Z,42.805,6.029,13.2990,4.60003,2470.156,2021-1-22T08:19:28Z
2021-01-22T06:21:29Z,42.805,6.029,13.2995,4.60008,2470.156,2021-1-22T08:22:31Z
2021-01-22T06:24:32Z,42.805,6.029,13.2994,4.60003,2470.156,2021-1-22T08:25:34Z
2021-01-22T06:27:35Z,42.805,6.029,13.2992,4.60009,2470.133,2021-1-22T08:28:37Z
2021-01-22T06:30:38Z,42.805,6.029,13.2993,4.60003,2470.171,2021-1-22T08:31:40Z
2021-01-22T06:33:42Z,42.805,6.029,13.3003,4.60011,2470.171,2021-1-22T08:34:43Z
2021-01-22T06:36:45Z,42.805,6.029,13.2997,4.60003,2470.156,2021-1-22T08:37:47Z
2021-01-22T06:39:48Z,42.805,6.029,13.2995,4.60001,2470.194,2021-1-22T08:40:50Z
2021-01-22T06:42:51Z,42.805,6.029,13.2993,4.60006,2470.18,2021-1-22T08:43:53Z
2021-01-22T06:45:54Z,42.805,6.029,13.2993,4.60005,2470.133,2021-1-22T08:46:56Z
2021-01-22T06:48:57Z,42.805,6.029,13.2994,4.60007,2470.18,2021-1-22T08:49:59Z
2021-01-22T06:52:00Z,42.805,6.029,13.2994,4.60005,2470.133,2021-1-22T08:53:02Z
2021-01-22T06:55:03Z,42.805,6.029,13.2996,4.60010,2470.147,2021-1-22T08:56:05Z
2021-01-22T06:58:06Z,42.805,6.029,13.2996,4.60005,2470.156,2021-1-22T08:59:08Z
2021-01-22T07:01:10Z,42.805,6.029,13.2996,4.60004,2470.194,2021-1-22T09:02:12Z
2021-01-22T07:04:13Z,42.805,6.029,13.2996,4.60009,2470.133,2021-1-22T09:05:15Z
2021-01-22T07:07:16Z,42.805,6.029,13.2998,4.60019,2470.171,2021-1-22T09:08:18Z
2021-01-22T07:10:19Z,42.805,6.029,13.3000,4.60019,2470.11,2021-1-22T09:11:21Z
2021-01-22T07:13:22Z,42.805,6.029,13.2993,4.60004,2470.147,2021-1-22T09:14:24Z
2021-01-22T07:16:25Z,42.805,6.029,13.2997,4.60008,2470.171,2021-1-22T09:17:27Z
2021-01-22T07:19:28Z,42.805,6.029,13.2995,4.60011,2470.147,2021-1-22T09:20:30Z
2021-01-22T07:22:31Z,42.805,6.029,13.2994,4.60009,2470.133,2021-1-22T09:23:33Z
2021-01-22T07:25:35Z,42.805,6.029,13.3001,4.60002,2470.147,2021-1-22T09:26:37Z
2021-01-22T07:28:38Z,42.805,6.029,13.2996,4.60008,2470.133,2021-1-22T09:29:40Z
2021-01-22T07:31:41Z,42.805,6.029,13.2989,4.60003,2470.147,2021-1-22T09:32:43Z
2021-01-22T07:34:44Z,42.805,6.029,13.2995,4.60007,2470.147,2021-1-22T09:35:46Z
2021-01-22T07:37:47Z,42.805,6.029,13.2993,4.60001,2470.156,2021-1-22T09:38:49Z
2021-01-22T07:40:50Z,42.805,6.029,13.2993,4.60011,2470.18,2021-1-22T09:41:52Z
2021-01-22T07:43:53Z,42.805,6.029,13.2991,4.60014,2470.147,2021-1-22T09:44:55Z
2021-01-22T07:46:56Z,42.805,6.029,13.2994,4.60008,2470.133,2021-1-22T09:47:58Z
2021-01-22T07:50:00Z,42.805,6.029,13.2990,4.60004,2470.171,2021-1-22T09:51:02Z
2021-01-22T07:53:03Z,42.805,6.029,13.2991,4.60003,2470.171,2021-1-22T09:54:05Z
2021-01-22T07:56:06Z,42.805,6.029,13.2991,4.60002,2470.147,2021-1-22T09:57:08Z
2021-01-22T07:59:09Z,42.805,6.029,13.2991,4.60007,2470.11,2021-1-22T10:00:11Z
2021-01-22T08:02:12Z,42.805,6.029,13.2995,4.60005,2470.124,2021-1-22T10:03:14Z
2021-01-22T08:05:15Z,42.805,6.029,13.2991,4.60006,2470.133,2021-1-22T10:06:17Z
2021-01-22T08:08:18Z,42.805,6.029,13.2993,4.60003,2470.147,2021-1-22T10:09:20Z
2021-01-22T08:11:21Z,42.805,6.029,13.2991,4.60003,2470.147,2021-1-22T10:12:23Z
2021-01-22T08:14:25Z,42.805,6.029,13.2991,4.60002,2470.194,2021-1-22T10:15:27Z
2021-01-22T08:17:28Z,42.805,6.029,13.2996,4.60003,2470.171,2021-1-22T10:18:30Z
2021-01-22T08:20:31Z,42.805,6.029,13.2992,4.60006,2470.156,2021-1-22T10:21:33Z
2021-01-22T08:23:34Z,42.805,6.029,13.2998,4.60008,2470.124,2021-1-22T10:24:36Z
2021-01-22T08:26:37Z,42.805,6.029,13.2989,4.59998,2470.133,2021-1-22T10:27:39Z
2021-01-22T08:29:40Z,42.805,6.029,13.2993,4.60003,2470.171,2021-1-22T10:30:42Z
2021-01-22T08:32:43Z,42.805,6.029,13.2991,4.60002,2470.133,2021-1-22T10:33:45Z
2021-01-22T08:35:47Z,42.805,6.029,13.2991,4.60003,2470.133,2021-1-22T10:36:48Z
2021-01-22T08:38:50Z,42.805,6.029,13.2990,4.59998,2470.133,2021-1-22T10:39:52Z
2021-01-22T08:41:53Z,42.805,6.029,13.2996,4.60004,2470.147,2021-1-22T10:42:55Z
2021-01-22T08:44:56Z,42.805,6.029,13.2991,4.60002,2470.133,2021-1-22T10:45:58Z
2021-01-22T08:47:59Z,42.805,6.029,13.2990,4.60006,2470.147,2021-1-22T10:49:01Z
2021-01-22T08:51:02Z,42.805,6.029,13.2996,4.60011,2470.156,2021-1-22T10:52:04Z
2021-01-22T08:54:05Z,42.805,6.029,13.2997,4.60009,2470.147,2021-1-22T10:55:07Z
2021-01-22T08:57:08Z,42.805,6.029,13.2986,4.60004,2470.156,2021-1-22T10:58:10Z
2021-01-22T09:00:12Z,42.805,6.029,13.2991,4.60006,2470.133,2021-1-22T11:01:13Z
2021-01-22T09:03:15Z,42.805,6.029,13.2991,4.60001,2470.133,2021-1-22T11:04:17Z
2021-01-22T09:06:18Z,42.805,6.029,13.2991,4.60001,2470.133,2021-1-22T11:07:20Z
2021-01-22T09:09:21Z,42.805,6.029,13.2991,4.60003,2470.194,2021-1-22T11:10:23Z
2021-01-22T09:12:24Z,42.805,6.029,13.2990,4.60009,2470.156,2021-1-22T11:13:26Z
2021-01-22T09:15:27Z,42.805,6.029,13.2989,4.59998,2470.156,2021-1-22T11:16:29Z
2021-01-22T09:18:30Z,42.805,6.029,13.2989,4.60005,2470.156,2021-1-22T11:19:32Z
2021-01-22T09:21:33Z,42.805,6.029,13.2994,4.60004,2470.18,2021-1-22T11:22:35Z
2021-01-22T09:24:37Z,42.805,6.029,13.2987,4.59996,2470.133,2021-1-22T11:25:38Z
2021-01-22T09:27:40Z,42.805,6.029,13.2990,4.59998,2470.156,2021-1-22T11:28:42Z
2021-01-22T09:30:43Z,42.805,6.029,13.2986,4.59996,2470.156,2021-1-22T11:31:45Z
2021-01-22T09:33:46Z,42.805,6.029,13.2988,4.59994,2470.194,2021-1-22T11:34:48Z
2021-01-22T09:36:49Z,42.805,6.029,13.2983,4.59995,2470.18,2021-1-22T11:37:51Z
2021-01-22T09:39:52Z,42.805,6.029,13.2987,4.59998,2470.156,2021-1-22T11:40:54Z
2021-01-22T09:42:55Z,42.805,6.029,13.2984,4.59995,2470.18,2021-1-22T11:43:57Z
2021-01-22T09:45:58Z,42.805,6.029,13.2987,4.59996,2470.194,2021-1-22T11:47:00Z
2021-01-22T09:49:02Z,42.805,6.029,13.2986,4.59996,2470.156,2021-1-22T11:50:04Z
2021-01-22T09:52:05Z,42.805,6.029,13.2992,4.59999,2470.156,2021-1-22T11:53:07Z
2021-01-22T09:55:08Z,42.805,6.029,13.2987,4.59995,2470.156,2021-1-22T11:56:10Z
2021-01-22T09:58:11Z,42.805,6.029,13.2984,4.59992,2470.171,2021-1-22T11:59:13Z
2021-01-22T10:01:14Z,42.805,6.029,13.2990,4.59998,2470.18,2021-1-22T12:02:16Z
2021-01-22T10:04:17Z,42.805,6.029,13.2990,4.59995,2470.203,2021-1-22T12:05:19Z
2021-01-22T10:07:20Z,42.805,6.029,13.2991,4.59996,2470.194,2021-1-22T12:08:22Z
2021-01-22T10:10:23Z,42.805,6.029,13.2989,4.59995,2470.217,2021-1-22T12:11:25Z
2021-01-22T10:13:27Z,42.805,6.029,13.2985,4.59991,2470.194,2021-1-22T12:14:29Z
2021-01-22T10:16:30Z,42.805,6.029,13.2984,4.59995,2470.18,2021-1-22T12:17:32Z
2021-01-22T10:19:33Z,42.805,6.029,13.2984,4.59995,2470.156,2021-1-22T12:20:35Z
2021-01-22T10:22:36Z,42.805,6.029,13.2987,4.59996,2470.18,2021-1-22T12:23:38Z
2021-01-22T10:25:39Z,42.805,6.029,13.2992,4.60000,2470.18,2021-1-22T12:26:41Z
2021-01-22T10:28:42Z,42.805,6.029,13.2990,4.59996,2470.203,2021-1-22T12:29:44Z
2021-01-22T10:31:45Z,42.805,6.029,13.2986,4.59995,2470.203,2021-1-22T12:32:47Z
2021-01-22T10:34:49Z,42.805,6.029,13.2986,4.59993,2470.18,2021-1-22T12:35:50Z
2021-01-22T10:37:52Z,42.805,6.029,13.2987,4.59994,2470.18,2021-1-22T12:38:54Z
2021-01-22T10:40:55Z,42.805,6.029,13.2987,4.59992,2470.156,2021-1-22T12:41:57Z
2021-01-22T10:43:58Z,42.805,6.029,13.2986,4.59996,2470.203,2021-1-22T12:45:00Z
2021-01-22T10:47:01Z,42.805,6.029,13.2987,4.59994,2470.156,2021-1-22T12:48:03Z
2021-01-22T10:50:04Z,42.805,6.029,13.2986,4.59993,2470.156,2021-1-22T12:51:06Z
2021-01-22T10:53:07Z,42.805,6.029,13.2983,4.59991,2470.203,2021-1-22T12:54:09Z
2021-01-22T10:56:10Z,42.805,6.029,13.2982,4.59992,2470.156,2021-1-22T12:57:12Z
2021-01-22T10:59:14Z,42.805,6.029,13.2990,4.59994,2470.227,2021-1-22T13:00:15Z
2021-01-22T11:02:17Z,42.805,6.029,13.2986,4.59999,2470.189,2021-1-22T13:03:19Z
2021-01-22T11:05:20Z,42.805,6.029,13.2986,4.59994,2470.203,2021-1-22T13:06:22Z
2021-01-22T11:08:23Z,42.805,6.029,13.2986,4.59994,2470.194,2021-1-22T13:09:25Z
2021-01-22T11:11:26Z,42.805,6.029,13.2986,4.59995,2470.194,2021-1-22T13:12:28Z
2021-01-22T11:14:29Z,42.805,6.029,13.2983,4.59993,2470.194,2021-1-22T13:15:31Z
2021-01-22T11:17:32Z,42.805,6.029,13.2984,4.59997,2470.194,2021-1-22T13:18:34Z
2021-01-22T11:20:35Z,42.805,6.029,13.2985,4.59994,2470.194,2021-1-22T13:21:37Z
2021-01-22T11:23:39Z,42.805,6.029,13.2983,4.59995,2470.18,2021-1-22T13:24:41Z
2021-01-22T11:26:42Z,42.805,6.029,13.2986,4.60001,2470.24,2021-1-22T13:27:44Z
2021-01-22T11:29:45Z,42.805,6.029,13.2990,4.59994,2470.203,2021-1-22T13:30:47Z
2021-01-22T11:32:48Z,42.805,6.029,13.2986,4.60001,2470.133,2021-1-22T13:33:50Z
2021-01-22T11:35:51Z,42.805,6.029,13.2986,4.59991,2470.18,2021-1-22T13:36:53Z
2021-01-22T11:38:54Z,42.805,6.029,13.2989,4.59996,2470.24,2021-1-22T13:39:56Z
2021-01-22T11:41:57Z,42.805,6.029,13.2985,4.60005,2470.203,2021-1-22T13:42:59Z
2021-01-22T11:45:00Z,42.805,6.029,13.2989,4.59993,2470.217,2021-1-22T13:46:02Z
2021-01-22T11:48:04Z,42.805,6.029,13.2985,4.60000,2470.227,2021-1-22T13:49:06Z
2021-01-22T11:51:07Z,42.805,6.029,13.2982,4.59994,2470.217,2021-1-22T13:52:09Z
2021-01-22T11:54:10Z,42.805,6.029,13.2986,4.59996,2470.194,2021-1-22T13:55:12Z
2021-01-22T11:57:13Z,42.805,6.029,13.2992,4.59996,2470.217,2021-1-22T13:58:15Z
2021-01-22T12:00:16Z,42.805,6.029,13.2990,4.59994,2470.194,2021-1-22T14:01:18Z
2021-01-22T12:03:19Z,42.805,6.029,13.2983,4.59991,2470.18,2021-1-22T14:04:21Z
2021-01-22T12:06:22Z,42.805,6.029,13.2984,4.59996,2470.203,2021-1-22T14:07:24Z
2021-01-22T12:09:25Z,42.805,6.029,13.2982,4.59991,2470.156,2021-1-22T14:10:27Z
2021-01-22T12:12:29Z,42.805,6.029,13.2981,4.59991,2470.203,2021-1-22T14:13:31Z
2021-01-22T12:15:32Z,42.805,6.029,13.2983,4.59993,2470.217,2021-1-22T14:16:34Z
2021-01-22T12:18:35Z,42.805,6.029,13.2983,4.59992,2470.217,2021-1-22T14:19:37Z
2021-01-22T12:21:38Z,42.805,6.029,13.2984,4.59993,2470.18,2021-1-22T14:22:40Z
2021-01-22T12:24:41Z,42.805,6.029,13.2986,4.59991,2470.227,2021-1-22T14:25:43Z
2021-01-22T12:27:44Z,42.805,6.029,13.2988,4.59996,2470.18,2021-1-22T14:28:46Z
2021-01-22T12:30:47Z,42.805,6.029,13.2983,4.59991,2470.203,2021-1-22T14:31:49Z
2021-01-22T12:33:50Z,42.805,6.029,13.2983,4.59993,2470.217,2021-1-22T14:34:52Z
2021-01-22T12:36:54Z,42.805,6.029,13.2983,4.59997,2470.18,2021-1-22T14:37:56Z
2021-01-22T12:39:57Z,42.805,6.029,13.2983,4.59994,2470.18,2021-1-22T14:40:59Z
2021-01-22T12:43:00Z,42.805,6.029,13.2991,4.59996,2470.203,2021-1-22T14:44:02Z
2021-01-22T12:46:03Z,42.805,6.029,13.2990,4.59996,2470.227,2021-1-22T14:47:05Z
2021-01-22T12:49:06Z,42.805,6.029,13.2986,4.59993,2470.203,2021-1-22T14:50:08Z
2021-01-22T12:52:09Z,42.805,6.029,13.2987,4.59990,2470.203,2021-1-22T14:53:11Z
2021-01-22T12:55:12Z,42.805,6.029,13.2986,4.59994,2470.217,2021-1-22T14:56:14Z
2021-01-22T12:58:15Z,42.805,6.029,13.2985,4.59996,2470.194,2021-1-22T14:59:17Z
2021-01-22T13:01:19Z,42.805,6.029,13.2991,4.60000,2470.227,2021-1-22T15:02:21Z
2021-01-22T13:04:22Z,42.805,6.029,13.2989,4.59992,2470.217,2021-1-22T15:05:24Z
2021-01-22T13:07:25Z,42.805,6.029,13.2986,4.59998,2470.227,2021-1-22T15:08:27Z
2021-01-22T13:10:28Z,42.805,6.029,13.2986,4.59996,2470.203,2021-1-22T15:11:30Z
2021-01-22T13:13:31Z,42.805,6.029,13.2985,4.59996,2470.217,2021-1-22T15:14:33Z
2021-01-22T13:16:34Z,42.805,6.029,13.2988,4.59997,2470.227,2021-1-22T15:17:36Z
2021-01-22T13:19:37Z,42.805,6.029,13.2989,4.59996,2470.203,2021-1-22T15:20:39Z
2021-01-22T13:22:41Z,42.805,6.029,13.2986,4.59994,2470.227,2021-1-22T15:23:42Z
2021-01-22T13:25:44Z,42.805,6.029,13.2983,4.59994,2470.18,2021-1-22T15:26:46Z
2021-01-22T13:28:47Z,42.805,6.029,13.2986,4.60009,2470.203,2021-1-22T15:29:49Z
2021-01-22T13:31:50Z,42.805,6.029,13.2989,4.60004,2470.227,2021-1-22T15:32:52Z
2021-01-22T13:34:53Z,42.805,6.029,13.2984,4.60009,2470.203,2021-1-22T15:35:55Z
2021-01-22T13:37:56Z,42.805,6.029,13.2984,4.59996,2470.203,2021-1-22T15:38:58Z
2021-01-22T13:40:59Z,42.805,6.029,13.2983,4.59999,2470.24,2021-1-22T15:42:01Z
2021-01-22T13:44:02Z,42.805,6.029,13.2989,4.60016,2470.24,2021-1-22T15:45:04Z
2021-01-22T13:47:06Z,42.805,6.029,13.2989,4.60001,2470.25,2021-1-22T15:48:07Z
2021-01-22T13:50:09Z,42.805,6.029,13.2993,4.60000,2470.227,2021-1-22T15:51:11Z
2021-01-22T13:53:12Z,42.805,6.029,13.2988,4.59996,2470.203,2021-1-22T15:54:14Z
2021-01-22T13:56:15Z,42.805,6.029,13.2984,4.59998,2470.227,2021-1-22T15:57:17Z
2021-01-22T13:59:18Z,42.805,6.029,13.2984,4.59997,2470.227,2021-1-22T16:00:20Z
2021-01-22T14:02:21Z,42.805,6.029,13.2986,4.59998,2470.227,2021-1-22T16:03:23Z
2021-01-22T14:05:24Z,42.805,6.029,13.2986,4.59991,2470.227,2021-1-22T16:06:26Z
2021-01-22T14:08:27Z,42.805,6.029,13.2982,4.59994,2470.227,2021-1-22T16:09:29Z
2021-01-22T14:11:31Z,42.805,6.029,13.2983,4.59998,2470.264,2021-1-22T16:12:33Z
2021-01-22T14:14:34Z,42.805,6.029,13.2983,4.59999,2470.24,2021-1-22T16:15:36Z
2021-01-22T14:17:37Z,42.805,6.029,13.2987,4.59997,2470.24,2021-1-22T16:18:39Z
2021-01-22T14:20:40Z,42.805,6.029,13.2985,4.59993,2470.217,2021-1-22T16:21:42Z
2021-01-22T14:23:43Z,42.805,6.029,13.2986,4.59995,2470.217,2021-1-22T16:24:45Z
2021-01-22T14:26:46Z,42.805,6.029,13.2986,4.59996,2470.203,2021-1-22T16:27:48Z
2021-01-22T14:29:49Z,42.805,6.029,13.2984,4.59995,2470.24,2021-1-22T16:30:51Z
2021-01-22T14:32:52Z,42.805,6.029,13.2991,4.59994,2470.227,2021-1-22T16:33:54Z
2021-01-22T14:35:56Z,42.805,6.029,13.2985,4.60001,2470.194,2021-1-22T16:36:58Z
2021-01-22T14:38:59Z,42.805,6.029,13.2982,4.59999,2470.203,2021-1-22T16:40:01Z
2021-01-22T14:42:02Z,42.805,6.029,13.2986,4.59993,2470.217,2021-1-22T16:43:04Z
2021-01-22T14:45:05Z,42.805,6.029,13.2982,4.59993,2470.203,2021-1-22T16:46:07Z
2021-01-22T14:48:08Z,42.805,6.029,13.2983,4.59993,2470.156,2021-1-22T16:49:10Z
2021-01-22T14:51:11Z,42.805,6.029,13.2985,4.59992,2470.203,2021-1-22T16:52:13Z
2021-01-22T14:54:14Z,42.805,6.029,13.2985,4.60000,2470.227,2021-1-22T16:55:16Z
2021-01-22T14:57:17Z,42.805,6.029,13.2987,4.59993,2470.203,2021-1-22T16:58:19Z
2021-01-22T15:00:21Z,42.805,6.029,13.2985,4.59992,2470.227,2021-1-22T17:01:23Z
2021-01-22T15:03:24Z,42.805,6.029,13.2991,4.59996,2470.203,2021-1-22T17:04:26Z
2021-01-22T15:06:27Z,42.805,6.029,13.2992,4.59999,2470.203,2021-1-22T17:07:29Z
2021-01-22T15:09:30Z,42.805,6.029,13.2983,4.59994,2470.227,2021-1-22T17:10:32Z
2021-01-22T15:12:33Z,42.805,6.029,13.2988,4.59995,2470.227,2021-1-22T17:13:35Z